| time (UTC) | temp F | wind direction | speed MPH | gust MPH | rain 1hr in | rain 24hr in | rain mn in | humidity % | barometer mb |
| 20260503053340 | 59 | 90 | 8.0 | 9.0 | 0.00 | 0.00 | 0.00 | 93 | 1020.2 |
| 20260503053238 | 59 | 90 | 7.0 | 9.0 | 0.00 | 0.00 | 0.00 | 94 | 1020.4 |
| 20260503052840 | 59 | 68 | 7.0 | 7.0 | 0.00 | 0.00 | 0.00 | 95 | 1020.1 |
| 20260503052739 | 59 | 68 | 7.0 | 8.0 | 0.00 | 0.00 | 0.00 | 95 | 1020.3 |
| 20260503052639 | 59 | 68 | 7.0 | 8.0 | 0.00 | 0.00 | 0.00 | 95 | 1020.5 |
| 20260503052440 | 59 | 68 | 7.0 | 8.0 | 0.00 | 0.00 | 0.00 | 94 | 1020.0 |
| 20260503052340 | 59 | 68 | 7.0 | 8.0 | 0.00 | 0.00 | 0.00 | 94 | 1020.3 |
| 20260503052240 | 59 | 68 | 7.0 | 8.0 | 0.00 | 0.00 | 0.00 | 93 | 1020.1 |
| 20260503052139 | 59 | 68 | 7.0 | 8.0 | 0.00 | 0.00 | 0.00 | 94 | 1020.4 |
| 20260503051640 | 59 | 68 | 7.0 | 7.0 | 0.00 | 0.00 | 0.00 | 94 | 1020.2 |
| 20260503051539 | 59 | 68 | 7.0 | 8.0 | 0.00 | 0.00 | 0.00 | 94 | 1020.1 |
| 20260503051340 | 59 | 68 | 7.0 | 8.0 | 0.00 | 0.00 | 0.00 | 93 | 1020.2 |
| 20260503050940 | 59 | 68 | 8.0 | 9.0 | 0.00 | 0.00 | 0.00 | 94 | 1020.3 |
| 20260503050839 | 59 | 90 | 8.0 | 9.0 | 0.00 | 0.00 | 0.00 | 94 | 1020.3 |
| 20260503050739 | 59 | 68 | 8.0 | 9.0 | 0.00 | 0.00 | 0.00 | 94 | 1020.4 |
| 20260503050639 | 59 | 68 | 7.0 | 9.0 | 0.00 | 0.00 | 0.00 | 94 | 1020.2 |
| 20260503050539 | 59 | 68 | 8.0 | 9.0 | 0.00 | 0.00 | 0.00 | 94 | 1020.2 |
| 20260503050339 | 59 | 68 | 7.0 | 9.0 | 0.00 | 0.00 | 0.00 | 93 | 1020.2 |
| 20260503045839 | 60 | 90 | 6.0 | 7.0 | 0.00 | 0.00 | 0.00 | 90 | 1020.2 |
| 20260503045739 | 59 | 68 | 7.0 | 8.0 | 0.00 | 0.00 | 0.00 | 88 | 1020.1 |
| 20260503045639 | 60 | 68 | 7.0 | 7.0 | 0.00 | 0.00 | 0.00 | 90 | 1020.3 |
| 20260503045439 | 60 | 68 | 7.0 | 9.0 | 0.00 | 0.00 | 0.00 | 91 | 1020.0 |
| 20260503045340 | 59 | 90 | 6.0 | 7.0 | 0.00 | 0.00 | 0.00 | 93 | 1020.3 |
| 20260503045239 | 59 | 68 | 7.0 | 8.0 | 0.00 | 0.00 | 0.00 | 93 | 1020.1 |
| 20260503045139 | 59 | 68 | 8.0 | 9.0 | 0.00 | 0.00 | 0.00 | 91 | 1020.1 |
| 20260503044939 | 59 | 68 | 8.0 | 9.0 | 0.00 | 0.00 | 0.00 | 93 | 1020.4 |
| 20260503044839 | 59 | 68 | 8.0 | 9.0 | 0.00 | 0.00 | 0.00 | 93 | 1020.2 |
| 20260503044440 | 59 | 68 | 6.0 | 7.0 | 0.00 | 0.00 | 0.00 | 94 | 1020.2 |
| 20260503044139 | 59 | 68 | 7.0 | 8.0 | 0.00 | 0.00 | 0.00 | 93 | 1020.4 |
| 20260503044039 | 59 | 68 | 8.0 | 9.0 | 0.00 | 0.00 | 0.00 | 92 | 1020.1 |
| 20260503043840 | 59 | 68 | 8.0 | 9.0 | 0.00 | 0.00 | 0.00 | 94 | 1019.9 |
| 20260503043639 | 58 | 90 | 7.0 | 9.0 | 0.00 | 0.00 | 0.00 | 94 | 1020.1 |
| 20260503043339 | 58 | 68 | 9.0 | 9.0 | 0.00 | 0.00 | 0.00 | 94 | 1020.2 |
| 20260503043040 | 59 | 90 | 9.0 | 10.0 | 0.00 | 0.00 | 0.00 | 94 | 1020.2 |
| 20260503042839 | 59 | 90 | 9.0 | 11.0 | 0.00 | 0.00 | 0.00 | 94 | 1020.1 |
| 20260503042739 | 59 | 90 | 9.0 | 10.0 | 0.00 | 0.00 | 0.00 | 95 | 1020.0 |
| 20260503042539 | 59 | 90 | 8.0 | 9.0 | 0.00 | 0.00 | 0.00 | 95 | 1019.9 |
| 20260503042439 | 59 | 90 | 9.0 | 10.0 | 0.00 | 0.00 | 0.00 | 94 | 1020.2 |
| 20260503042239 | 59 | 68 | 8.0 | 9.0 | 0.00 | 0.00 | 0.00 | 94 | 1020.3 |
| 20260503042039 | 59 | 90 | 8.0 | 10.0 | 0.00 | 0.00 | 0.00 | 94 | 1020.2 |
| 20260503041939 | 59 | 68 | 9.0 | 10.0 | 0.00 | 0.00 | 0.00 | 93 | 1020.2 |
| 20260503041839 | 59 | 68 | 8.0 | 9.0 | 0.00 | 0.00 | 0.00 | 94 | 1020.1 |
| 20260503041740 | 59 | 68 | 8.0 | 9.0 | 0.00 | 0.00 | 0.00 | 94 | 1020.2 |
| 20260503041540 | 59 | 68 | 8.0 | 10.0 | 0.00 | 0.00 | 0.00 | 95 | 1020.2 |
| 20260503041340 | 59 | 68 | 8.0 | 9.0 | 0.00 | 0.00 | 0.00 | 94 | 1020.0 |
| 20260503041139 | 59 | 90 | 9.0 | 11.0 | 0.00 | 0.00 | 0.00 | 94 | 1020.1 |
| 20260503040740 | 59 | 68 | 7.0 | 9.0 | 0.00 | 0.00 | 0.00 | 94 | 1020.0 |
| 20260503040539 | 59 | 90 | 7.0 | 9.0 | 0.00 | 0.00 | 0.00 | 95 | 1020.1 |
| 20260503040039 | 59 | 68 | 8.0 | 9.0 | 0.00 | 0.00 | 0.00 | 95 | 1020.1 |
| 20260503035939 | 59 | 68 | 8.0 | 9.0 | 0.00 | 0.00 | 0.00 | 95 | 1020.1 |
| 20260503035839 | 59 | 68 | 8.0 | 9.0 | 0.00 | 0.00 | 0.00 | 95 | 1019.9 |
| 20260503035639 | 59 | 68 | 8.0 | 9.0 | 0.00 | 0.00 | 0.00 | 94 | 1019.9 |
| 20260503035140 | 59 | 68 | 8.0 | 9.0 | 0.00 | 0.00 | 0.00 | 94 | 1020.0 |
| 20260503035039 | 59 | 68 | 9.0 | 10.0 | 0.00 | 0.00 | 0.00 | 94 | 1020.0 |
| 20260503034939 | 59 | 90 | 9.0 | 11.0 | 0.00 | 0.00 | 0.00 | 93 | 1020.1 |
| 20260503034739 | 59 | 68 | 8.0 | 10.0 | 0.00 | 0.00 | 0.00 | 93 | 1020.1 |
| 20260503034640 | 59 | 90 | 10.0 | 12.0 | 0.00 | 0.00 | 0.00 | 90 | 1020.2 |
| 20260503034540 | 59 | 68 | 9.0 | 12.0 | 0.00 | 0.00 | 0.00 | 93 | 1020.0 |
| 20260503033639 | 60 | 90 | 9.0 | 10.0 | 0.00 | 0.00 | 0.00 | 92 | 1020.0 |
| 20260503033440 | 59 | 68 | 7.0 | 9.0 | 0.00 | 0.00 | 0.00 | 94 | 1020.1 |
| 20260503033340 | 60 | 90 | 8.0 | 9.0 | 0.00 | 0.00 | 0.00 | 91 | 1020.0 |
| 20260503032539 | 60 | 90 | 8.0 | 9.0 | 0.00 | 0.00 | 0.00 | 91 | 1019.9 |
| 20260503032340 | 60 | 90 | 7.0 | 10.0 | 0.00 | 0.00 | 0.00 | 93 | 1020.3 |
| 20260503032240 | 60 | 90 | 7.0 | 7.0 | 0.00 | 0.00 | 0.00 | 94 | 1020.1 |
| 20260503031940 | 59 | 68 | 8.0 | 9.0 | 0.00 | 0.00 | 0.00 | 94 | 1020.1 |
| 20260503031840 | 59 | 68 | 8.0 | 9.0 | 0.00 | 0.00 | 0.00 | 95 | 1020.0 |
| 20260503031740 | 59 | 68 | 8.0 | 9.0 | 0.00 | 0.00 | 0.00 | 95 | 1020.0 |
| 20260503031640 | 59 | 68 | 7.0 | 9.0 | 0.00 | 0.00 | 0.00 | 94 | 1020.1 |
| 20260503031540 | 59 | 90 | 8.0 | 9.0 | 0.00 | 0.00 | 0.00 | 94 | 1020.2 |
| 20260503030940 | 60 | 68 | 9.0 | 10.0 | 0.00 | 0.00 | 0.00 | 93 | 1019.8 |
| 20260503030740 | 59 | 90 | 8.0 | 9.0 | 0.00 | 0.00 | 0.00 | 93 | 1020.2 |
| 20260503030641 | 60 | 68 | 9.0 | 10.0 | 0.00 | 0.00 | 0.00 | 94 | 1020.4 |
| 20260503030539 | 60 | 68 | 8.0 | 10.0 | 0.00 | 0.00 | 0.00 | 93 | 1020.1 |
| 20260503030240 | 60 | 68 | 7.0 | 9.0 | 0.00 | 0.00 | 0.00 | 94 | 1020.0 |
| 20260503030140 | 60 | 90 | 7.0 | 9.0 | 0.00 | 0.00 | 0.00 | 91 | 1020.2 |
| 20260503025839 | 60 | 90 | 8.0 | 9.0 | 0.00 | 0.00 | 0.00 | 91 | 1020.2 |
| 20260503025739 | 59 | 68 | 7.0 | 9.0 | 0.00 | 0.00 | 0.00 | 95 | 1020.3 |
| 20260503025639 | 59 | 68 | 7.0 | 9.0 | 0.00 | 0.00 | 0.00 | 94 | 1020.5 |
| 20260503025339 | 60 | 68 | 7.0 | 8.0 | 0.00 | 0.00 | 0.00 | 95 | 1020.4 |
| 20260503025039 | 60 | 68 | 8.0 | 9.0 | 0.00 | 0.00 | 0.00 | 93 | 1020.2 |
| 20260503024939 | 60 | 68 | 8.0 | 9.0 | 0.00 | 0.00 | 0.00 | 94 | 1020.2 |
| 20260503024839 | 59 | 68 | 8.0 | 9.0 | 0.00 | 0.00 | 0.00 | 95 | 1020.2 |
| 20260503024340 | 60 | 68 | 8.0 | 9.0 | 0.00 | 0.00 | 0.00 | 94 | 1020.2 |
| 20260503024139 | 60 | 90 | 8.0 | 9.0 | 0.00 | 0.00 | 0.00 | 93 | 1020.4 |
| 20260503024039 | 60 | 90 | 8.0 | 9.0 | 0.00 | 0.00 | 0.00 | 92 | 1020.3 |
| 20260503023940 | 60 | 90 | 8.0 | 9.0 | 0.00 | 0.00 | 0.00 | 92 | 1020.5 |
| 20260503023840 | 60 | 90 | 8.0 | 9.0 | 0.00 | 0.00 | 0.00 | 93 | 1020.4 |
| 20260503023740 | 60 | 68 | 8.0 | 9.0 | 0.00 | 0.00 | 0.00 | 93 | 1020.4 |
| 20260503023540 | 60 | 68 | 8.0 | 9.0 | 0.00 | 0.00 | 0.00 | 92 | 1020.5 |
| 20260503023440 | 60 | 68 | 8.0 | 9.0 | 0.00 | 0.00 | 0.00 | 89 | 1020.3 |
| 20260503023140 | 61 | 90 | 6.0 | 7.0 | 0.00 | 0.00 | 0.00 | 90 | 1020.4 |
| 20260503023039 | 60 | 90 | 7.0 | 8.0 | 0.00 | 0.00 | 0.00 | 87 | 1020.5 |
| 20260503022939 | 60 | 90 | 7.0 | 7.0 | 0.00 | 0.00 | 0.00 | 92 | 1020.4 |
| 20260503022839 | 60 | 68 | 7.0 | 9.0 | 0.00 | 0.00 | 0.00 | 93 | 1020.6 |
| 20260503022740 | 60 | 90 | 7.0 | 8.0 | 0.00 | 0.00 | 0.00 | 91 | 1020.3 |
| 20260503022539 | 60 | 90 | 8.0 | 8.0 | 0.00 | 0.00 | 0.00 | 90 | 1020.5 |
| 20260503022239 | 60 | 68 | 6.0 | 7.0 | 0.00 | 0.00 | 0.00 | 93 | 1020.5 |
| 20260503021839 | 60 | 68 | 8.0 | 9.0 | 0.00 | 0.00 | 0.00 | 90 | 1020.5 |
| 20260503021739 | 60 | 68 | 8.0 | 9.0 | 0.00 | 0.00 | 0.00 | 93 | 1020.6 |
| 20260503021340 | 60 | 68 | 9.0 | 10.0 | 0.00 | 0.00 | 0.00 | 92 | 1020.4 |
| 20260503021240 | 60 | 68 | 8.0 | 11.0 | 0.00 | 0.00 | 0.00 | 91 | 1020.4 |
| 20260503020840 | 60 | 68 | 7.0 | 9.0 | 0.00 | 0.00 | 0.00 | 91 | 1020.5 |
| 20260503020540 | 60 | 90 | 7.0 | 8.0 | 0.00 | 0.00 | 0.00 | 88 | 1020.6 |
| 20260503020440 | 61 | 90 | 6.0 | 8.0 | 0.00 | 0.00 | 0.00 | 91 | 1020.5 |
| 20260503020039 | 61 | 90 | 6.0 | 7.0 | 0.00 | 0.00 | 0.00 | 90 | 1020.4 |
| 20260503015939 | 61 | 90 | 8.0 | 9.0 | 0.00 | 0.00 | 0.00 | 91 | 1020.4 |
| 20260503015539 | 61 | 68 | 7.0 | 8.0 | 0.00 | 0.00 | 0.00 | 89 | 1020.3 |
| 20260503015439 | 61 | 68 | 7.0 | 8.0 | 0.00 | 0.00 | 0.00 | 92 | 1020.5 |
| 20260503015339 | 61 | 68 | 8.0 | 9.0 | 0.00 | 0.00 | 0.00 | 90 | 1020.6 |
| 20260503014840 | 61 | 68 | 7.0 | 8.0 | 0.00 | 0.00 | 0.00 | 91 | 1020.3 |
| 20260503014740 | 61 | 90 | 8.0 | 9.0 | 0.00 | 0.00 | 0.00 | 88 | 1020.4 |
| 20260503014539 | 61 | 90 | 8.0 | 9.0 | 0.00 | 0.00 | 0.00 | 85 | 1020.4 |
| 20260503014439 | 61 | 90 | 8.0 | 9.0 | 0.00 | 0.00 | 0.00 | 85 | 1020.5 |
| 20260503014239 | 61 | 90 | 6.0 | 7.0 | 0.00 | 0.00 | 0.00 | 89 | 1020.2 |
| 20260503013639 | 61 | 68 | 7.0 | 7.0 | 0.00 | 0.00 | 0.00 | 90 | 1020.4 |
| 20260503013539 | 61 | 112 | 7.0 | 8.0 | 0.00 | 0.00 | 0.00 | 91 | 1020.4 |
| 20260503013240 | 61 | 68 | 8.0 | 9.0 | 0.00 | 0.00 | 0.00 | 90 | 1020.5 |
| 20260503013140 | 61 | 90 | 8.0 | 9.0 | 0.00 | 0.00 | 0.00 | 91 | 1020.5 |
| 20260503013040 | 61 | 90 | 8.0 | 9.0 | 0.00 | 0.00 | 0.00 | 91 | 1020.3 |
| 20260503012540 | 61 | 90 | 5.0 | 7.0 | 0.00 | 0.00 | 0.00 | 88 | 1020.7 |
| 20260503012440 | 61 | 68 | 6.0 | 8.0 | 0.00 | 0.00 | 0.00 | 89 | 1020.4 |
| 20260503012139 | 61 | 68 | 9.0 | 11.0 | 0.00 | 0.00 | 0.00 | 88 | 1020.7 |
| 20260503011839 | 61 | 68 | 7.0 | 9.0 | 0.00 | 0.00 | 0.00 | 93 | 1020.5 |
| 20260503011639 | 61 | 68 | 9.0 | 11.0 | 0.00 | 0.00 | 0.00 | 90 | 1020.7 |
| 20260503011439 | 61 | 90 | 8.0 | 9.0 | 0.00 | 0.00 | 0.00 | 90 | 1020.5 |
| 20260503011140 | 61 | 68 | 7.0 | 8.0 | 0.00 | 0.00 | 0.00 | 88 | 1020.6 |
| 20260503010940 | 61 | 90 | 7.0 | 8.0 | 0.00 | 0.00 | 0.00 | 85 | 1020.5 |
| 20260503010740 | 61 | 90 | 7.0 | 8.0 | 0.00 | 0.00 | 0.00 | 91 | 1020.6 |
| 20260503010539 | 61 | 68 | 7.0 | 9.0 | 0.00 | 0.00 | 0.00 | 87 | 1020.6 |
| 20260503010439 | 61 | 68 | 7.0 | 9.0 | 0.00 | 0.00 | 0.00 | 87 | 1020.7 |
| 20260503010339 | 61 | 68 | 6.0 | 7.0 | 0.00 | 0.00 | 0.00 | 91 | 1020.7 |
| 20260503010040 | 61 | 68 | 8.0 | 9.0 | 0.00 | 0.00 | 0.00 | 87 | 1020.6 |
| 20260503005539 | 61 | 90 | 8.0 | 9.0 | 0.00 | 0.00 | 0.00 | 90 | 1020.7 |
| 20260503005440 | 61 | 90 | 8.0 | 9.0 | 0.00 | 0.00 | 0.00 | 90 | 1020.8 |
| 20260503005339 | 61 | 68 | 8.0 | 9.0 | 0.00 | 0.00 | 0.00 | 90 | 1020.7 |
| 20260503005140 | 61 | 90 | 9.0 | 10.0 | 0.00 | 0.00 | 0.00 | 88 | 1020.7 |
| 20260503004840 | 62 | 90 | 8.0 | 9.0 | 0.00 | 0.00 | 0.00 | 88 | 1020.7 |
| 20260503004740 | 62 | 90 | 7.0 | 8.0 | 0.00 | 0.00 | 0.00 | 87 | 1020.8 |
| 20260503004640 | 62 | 90 | 7.0 | 8.0 | 0.00 | 0.00 | 0.00 | 90 | 1020.7 |
| 20260503004540 | 62 | 90 | 7.0 | 9.0 | 0.00 | 0.00 | 0.00 | 86 | 1020.9 |
| 20260503004440 | 62 | 90 | 7.0 | 9.0 | 0.00 | 0.00 | 0.00 | 87 | 1020.6 |
| 20260503004340 | 62 | 90 | 7.0 | 9.0 | 0.00 | 0.00 | 0.00 | 85 | 1021.0 |
| 20260503004239 | 61 | 68 | 6.0 | 7.0 | 0.00 | 0.00 | 0.00 | 87 | 1020.6 |
| 20260503003640 | 61 | 68 | 7.0 | 8.0 | 0.00 | 0.00 | 0.00 | 89 | 1021.0 |
| 20260503003240 | 61 | 68 | 8.0 | 9.0 | 0.00 | 0.00 | 0.00 | 88 | 1020.9 |
| 20260503003040 | 61 | 90 | 8.0 | 9.0 | 0.00 | 0.00 | 0.00 | 86 | 1020.9 |
| 20260503002339 | 62 | 90 | 7.0 | 8.0 | 0.00 | 0.00 | 0.00 | 85 | 1021.0 |
| 20260503002140 | 62 | 68 | 7.0 | 7.0 | 0.00 | 0.00 | 0.00 | 85 | 1021.0 |
| 20260503002040 | 62 | 68 | 6.0 | 7.0 | 0.00 | 0.00 | 0.00 | 89 | 1021.1 |
| 20260503001840 | 62 | 68 | 7.0 | 7.0 | 0.00 | 0.00 | 0.00 | 85 | 1021.1 |
| 20260503001639 | 62 | 68 | 7.0 | 8.0 | 0.00 | 0.00 | 0.00 | 84 | 1021.1 |
| 20260503001440 | 62 | 90 | 5.0 | 7.0 | 0.00 | 0.00 | 0.00 | 88 | 1020.9 |
| 20260503001139 | 62 | 68 | 6.0 | 7.0 | 0.00 | 0.00 | 0.00 | 86 | 1021.2 |
| 20260503001039 | 62 | 90 | 7.0 | 7.0 | 0.00 | 0.00 | 0.00 | 83 | 1021.1 |
| 20260503000940 | 62 | 68 | 7.0 | 7.0 | 0.00 | 0.00 | 0.00 | 85 | 1021.0 |
| 20260503000840 | 62 | 68 | 6.0 | 7.0 | 0.00 | 0.00 | 0.00 | 87 | 1021.0 |
| 20260503000740 | 62 | 90 | 7.0 | 8.0 | 0.00 | 0.00 | 0.00 | 86 | 1021.1 |
| 20260503000539 | 62 | 90 | 7.0 | 8.0 | 0.00 | 0.00 | 0.00 | 86 | 1021.2 |
| 20260503000440 | 62 | 90 | 7.0 | 8.0 | 0.00 | 0.00 | 0.00 | 86 | 1021.3 |
| 20260503000339 | 62 | 90 | 7.0 | 8.0 | 0.00 | 0.00 | 0.00 | 86 | 1021.3 |
| 20260503000240 | 62 | 90 | 7.0 | 8.0 | 0.00 | 0.00 | 0.00 | 86 | 1021.2 |
| 20260502235840 | 62 | 90 | 7.0 | 7.0 | 0.00 | 0.00 | 0.00 | 88 | 1021.3 |
| 20260502235740 | 62 | 90 | 7.0 | 7.0 | 0.00 | 0.00 | 0.00 | 88 | 1021.1 |
| 20260502235539 | 62 | 90 | 7.0 | 7.0 | 0.00 | 0.00 | 0.00 | 87 | 1021.0 |
| 20260502235140 | 62 | 90 | 7.0 | 7.0 | 0.00 | 0.00 | 0.00 | 85 | 1021.1 |
| 20260502235040 | 62 | 68 | 7.0 | 9.0 | 0.00 | 0.00 | 0.00 | 83 | 1021.2 |
| 20260502234940 | 62 | 68 | 8.0 | 9.0 | 0.00 | 0.00 | 0.00 | 82 | 1021.3 |
| 20260502234639 | 62 | 90 | 7.0 | 9.0 | 0.00 | 0.00 | 0.00 | 87 | 1021.3 |
| 20260502233939 | 62 | 90 | 7.0 | 9.0 | 0.00 | 0.00 | 0.00 | 89 | 1021.2 |
| 20260502233640 | 62 | 90 | 7.0 | 9.0 | 0.00 | 0.00 | 0.00 | 86 | 1021.3 |
| 20260502233540 | 62 | 68 | 8.0 | 9.0 | 0.00 | 0.00 | 0.00 | 86 | 1021.3 |
| 20260502233440 | 62 | 90 | 7.0 | 9.0 | 0.00 | 0.00 | 0.00 | 86 | 1021.4 |
| 20260502233139 | 62 | 90 | 7.0 | 9.0 | 0.00 | 0.00 | 0.00 | 89 | 1021.1 |
| 20260502233040 | 62 | 90 | 7.0 | 8.0 | 0.00 | 0.00 | 0.00 | 91 | 1021.2 |
| 20260502232940 | 62 | 90 | 8.0 | 9.0 | 0.00 | 0.00 | 0.00 | 88 | 1021.3 |
| 20260502232840 | 62 | 90 | 7.0 | 9.0 | 0.00 | 0.00 | 0.00 | 90 | 1021.3 |
| 20260502232739 | 62 | 90 | 7.0 | 10.0 | 0.00 | 0.00 | 0.00 | 88 | 1021.5 |
| 20260502232640 | 62 | 68 | 7.0 | 9.0 | 0.00 | 0.00 | 0.00 | 87 | 1021.3 |
| 20260502232439 | 62 | 90 | 7.0 | 9.0 | 0.00 | 0.00 | 0.00 | 84 | 1021.5 |
| 20260502232339 | 63 | 90 | 8.0 | 9.0 | 0.00 | 0.00 | 0.00 | 85 | 1021.4 |
| 20260502232239 | 63 | 90 | 8.0 | 9.0 | 0.00 | 0.00 | 0.00 | 85 | 1021.4 |
| 20260502232139 | 63 | 90 | 7.0 | 7.0 | 0.00 | 0.00 | 0.00 | 85 | 1021.7 |
| 20260502231940 | 63 | 90 | 7.0 | 8.0 | 0.00 | 0.00 | 0.00 | 86 | 1021.5 |
| 20260502231840 | 63 | 90 | 7.0 | 9.0 | 0.00 | 0.00 | 0.00 | 85 | 1021.5 |
| 20260502231739 | 63 | 90 | 7.0 | 8.0 | 0.00 | 0.00 | 0.00 | 86 | 1021.5 |
| 20260502231539 | 63 | 90 | 7.0 | 7.0 | 0.00 | 0.00 | 0.00 | 84 | 1021.6 |
| 20260502231039 | 63 | 68 | 7.0 | 8.0 | 0.00 | 0.00 | 0.00 | 85 | 1021.4 |
| 20260502230939 | 63 | 68 | 7.0 | 8.0 | 0.00 | 0.00 | 0.00 | 84 | 1021.5 |
| 20260502230839 | 63 | 90 | 7.0 | 7.0 | 0.00 | 0.00 | 0.00 | 87 | 1021.7 |
| 20260502230540 | 63 | 68 | 7.0 | 8.0 | 0.00 | 0.00 | 0.00 | 85 | 1021.4 |
| 20260502230340 | 62 | 68 | 7.0 | 7.0 | 0.00 | 0.00 | 0.00 | 89 | 1021.4 |
| 20260502230240 | 62 | 68 | 6.0 | 7.0 | 0.00 | 0.00 | 0.00 | 90 | 1021.5 |
| 20260502230140 | 62 | 68 | 7.0 | 7.0 | 0.00 | 0.00 | 0.00 | 88 | 1021.4 |
| 20260502225940 | 62 | 68 | 7.0 | 7.0 | 0.00 | 0.00 | 0.00 | 87 | 1021.6 |
| 20260502225839 | 62 | 68 | 7.0 | 8.0 | 0.00 | 0.00 | 0.00 | 87 | 1021.7 |
| 20260502225739 | 62 | 90 | 7.0 | 8.0 | 0.00 | 0.00 | 0.00 | 86 | 1021.6 |
| 20260502225639 | 63 | 68 | 7.0 | 8.0 | 0.00 | 0.00 | 0.00 | 89 | 1021.3 |
| 20260502225539 | 63 | 68 | 6.0 | 7.0 | 0.00 | 0.00 | 0.00 | 92 | 1021.3 |
| 20260502225439 | 63 | 90 | 7.0 | 7.0 | 0.00 | 0.00 | 0.00 | 89 | 1021.7 |
| 20260502225339 | 63 | 90 | 7.0 | 8.0 | 0.00 | 0.00 | 0.00 | 87 | 1021.6 |
| 20260502225239 | 63 | 90 | 7.0 | 7.0 | 0.00 | 0.00 | 0.00 | 89 | 1021.7 |
| 20260502225140 | 63 | 90 | 6.0 | 7.0 | 0.00 | 0.00 | 0.00 | 89 | 1021.6 |
| 20260502225040 | 63 | 90 | 6.0 | 7.0 | 0.00 | 0.00 | 0.00 | 88 | 1021.6 |
| 20260502224439 | 63 | 68 | 6.0 | 7.0 | 0.00 | 0.00 | 0.00 | 85 | 1021.8 |
| 20260502224339 | 63 | 68 | 4.0 | 6.0 | 0.00 | 0.00 | 0.00 | 88 | 1021.5 |
| 20260502224240 | 64 | 68 | 5.0 | 6.0 | 0.00 | 0.00 | 0.00 | 85 | 1021.5 |
| 20260502224140 | 63 | 68 | 5.0 | 7.0 | 0.00 | 0.00 | 0.00 | 82 | 1021.6 |
| 20260502223839 | 63 | 68 | 5.0 | 6.0 | 0.00 | 0.00 | 0.00 | 87 | 1021.8 |
| 20260502223739 | 63 | 68 | 5.0 | 6.0 | 0.00 | 0.00 | 0.00 | 88 | 1021.5 |
| 20260502223540 | 63 | 68 | 5.0 | 6.0 | 0.00 | 0.00 | 0.00 | 88 | 1021.7 |
| 20260502223440 | 63 | 68 | 6.0 | 6.0 | 0.00 | 0.00 | 0.00 | 85 | 1021.7 |
| 20260502223339 | 63 | 68 | 6.0 | 6.0 | 0.00 | 0.00 | 0.00 | 86 | 1021.7 |
| 20260502223239 | 63 | 90 | 6.0 | 7.0 | 0.00 | 0.00 | 0.00 | 84 | 1021.8 |
| 20260502222639 | 64 | 68 | 7.0 | 7.0 | 0.00 | 0.00 | 0.00 | 83 | 1021.7 |
| 20260502222540 | 64 | 90 | 7.0 | 7.0 | 0.00 | 0.00 | 0.00 | 81 | 1021.6 |
| 20260502222340 | 64 | 68 | 6.0 | 7.0 | 0.00 | 0.00 | 0.00 | 82 | 1021.7 |
| 20260502221940 | 64 | 68 | 6.0 | 7.0 | 0.00 | 0.00 | 0.00 | 82 | 1021.5 |
| 20260502221840 | 63 | 68 | 6.0 | 7.0 | 0.00 | 0.00 | 0.00 | 81 | 1021.6 |
| 20260502221740 | 64 | 68 | 6.0 | 7.0 | 0.00 | 0.00 | 0.00 | 81 | 1021.5 |
| 20260502221640 | 64 | 68 | 7.0 | 7.0 | 0.00 | 0.00 | 0.00 | 83 | 1021.5 |
| 20260502221540 | 63 | 68 | 6.0 | 7.0 | 0.00 | 0.00 | 0.00 | 83 | 1021.8 |
| 20260502221240 | 63 | 90 | 7.0 | 7.0 | 0.00 | 0.00 | 0.00 | 84 | 1021.6 |
| 20260502221140 | 63 | 90 | 6.0 | 6.0 | 0.00 | 0.00 | 0.00 | 85 | 1021.5 |
| 20260502220940 | 63 | 90 | 6.0 | 7.0 | 0.00 | 0.00 | 0.00 | 82 | 1021.5 |
| 20260502220739 | 64 | 68 | 5.0 | 6.0 | 0.00 | 0.00 | 0.00 | 84 | 1021.6 |
| 20260502220639 | 64 | 68 | 5.0 | 6.0 | 0.00 | 0.00 | 0.00 | 85 | 1021.6 |
| 20260502220440 | 64 | 90 | 5.0 | 6.0 | 0.00 | 0.00 | 0.00 | 81 | 1021.6 |
| 20260502220339 | 64 | 90 | 5.0 | 6.0 | 0.00 | 0.00 | 0.00 | 80 | 1021.5 |
| 20260502220239 | 64 | 68 | 4.0 | 6.0 | 0.00 | 0.00 | 0.00 | 84 | 1021.6 |
| 20260502215740 | 64 | 90 | 5.0 | 6.0 | 0.00 | 0.00 | 0.00 | 79 | 1021.7 |
| 20260502215640 | 64 | 90 | 5.0 | 6.0 | 0.00 | 0.00 | 0.00 | 78 | 1021.4 |
| 20260502215440 | 64 | 90 | 4.0 | 5.0 | 0.00 | 0.00 | 0.00 | 82 | 1021.5 |
| 20260502215239 | 64 | 90 | 4.0 | 4.0 | 0.00 | 0.00 | 0.00 | 78 | 1021.6 |
| 20260502215139 | 64 | 90 | 4.0 | 5.0 | 0.00 | 0.00 | 0.00 | 76 | 1021.6 |
| 20260502214939 | 64 | 90 | 4.0 | 5.0 | 0.00 | 0.00 | 0.00 | 81 | 1021.5 |
| 20260502214439 | 64 | 90 | 4.0 | 5.0 | 0.00 | 0.00 | 0.00 | 78 | 1021.4 |
| 20260502214039 | 64 | 90 | 5.0 | 6.0 | 0.00 | 0.00 | 0.00 | 78 | 1021.7 |
| 20260502213839 | 64 | 90 | 5.0 | 6.0 | 0.00 | 0.00 | 0.00 | 77 | 1021.4 |
| 20260502213739 | 64 | 90 | 5.0 | 6.0 | 0.00 | 0.00 | 0.00 | 73 | 1021.4 |
| 20260502213140 | 63 | 90 | 4.0 | 6.0 | 0.00 | 0.00 | 0.00 | 86 | 1021.4 |
| 20260502212739 | 64 | 90 | 4.0 | 6.0 | 0.00 | 0.00 | 0.00 | 80 | 1021.6 |
| 20260502212639 | 64 | 90 | 6.0 | 6.0 | 0.00 | 0.00 | 0.00 | 76 | 1021.6 |
| 20260502212539 | 64 | 90 | 6.0 | 7.0 | 0.00 | 0.00 | 0.00 | 77 | 1021.5 |
| 20260502212439 | 64 | 90 | 6.0 | 7.0 | 0.00 | 0.00 | 0.00 | 84 | 1021.6 |
| 20260502212240 | 64 | 90 | 7.0 | 7.0 | 0.00 | 0.00 | 0.00 | 76 | 1021.6 |
| 20260502211740 | 64 | 90 | 6.0 | 7.0 | 0.00 | 0.00 | 0.00 | 77 | 1021.5 |
| 20260502211640 | 65 | 90 | 5.0 | 6.0 | 0.00 | 0.00 | 0.00 | 79 | 1021.5 |
| 20260502211039 | 63 | 90 | 3.0 | 3.0 | 0.00 | 0.00 | 0.00 | 72 | 1021.5 |
| 20260502210839 | 63 | 90 | 3.0 | 3.0 | 0.00 | 0.00 | 0.00 | 73 | 1021.4 |
| 20260502210340 | 63 | 90 | 4.0 | 4.0 | 0.00 | 0.00 | 0.00 | 75 | 1021.5 |
| 20260502210140 | 63 | 90 | 4.0 | 4.0 | 0.00 | 0.00 | 0.00 | 79 | 1021.5 |
| 20260502210039 | 63 | 90 | 4.0 | 4.0 | 0.00 | 0.00 | 0.00 | 79 | 1021.5 |
| 20260502205639 | 63 | 90 | 4.0 | 5.0 | 0.00 | 0.00 | 0.00 | 83 | 1021.5 |
| 20260502205539 | 64 | 68 | 4.0 | 4.0 | 0.00 | 0.00 | 0.00 | 85 | 1021.6 |
| 20260502205439 | 64 | 68 | 4.0 | 5.0 | 0.00 | 0.00 | 0.00 | 85 | 1021.5 |
| 20260502205039 | 64 | 68 | 5.0 | 6.0 | 0.00 | 0.00 | 0.00 | 84 | 1021.5 |
| 20260502204840 | 64 | 90 | 6.0 | 6.0 | 0.00 | 0.00 | 0.00 | 78 | 1021.5 |
| 20260502204740 | 64 | 90 | 5.0 | 6.0 | 0.00 | 0.00 | 0.00 | 80 | 1021.5 |
| 20260502204640 | 64 | 90 | 4.0 | 5.0 | 0.00 | 0.00 | 0.00 | 77 | 1021.5 |
| 20260502204240 | 64 | 112 | 4.0 | 4.0 | 0.00 | 0.00 | 0.00 | 76 | 1021.7 |
| 20260502203840 | 63 | 112 | 1.0 | 2.0 | 0.00 | 0.00 | 0.00 | 70 | 1021.5 |
| 20260502203339 | 64 | 90 | 1.0 | 2.0 | 0.00 | 0.00 | 0.00 | 68 | 1021.7 |
| 20260502203140 | 64 | 90 | 1.0 | 2.0 | 0.00 | 0.00 | 0.00 | 69 | 1021.6 |
| 20260502203040 | 64 | 112 | 1.0 | 2.0 | 0.00 | 0.00 | 0.00 | 70 | 1021.4 |
| 20260502202940 | 64 | 90 | 1.0 | 2.0 | 0.00 | 0.00 | 0.00 | 69 | 1021.6 |
| 20260502202840 | 63 | 112 | 1.0 | 1.0 | 0.00 | 0.00 | 0.00 | 70 | 1021.4 |
| 20260502202740 | 63 | 90 | 0.0 | 1.0 | 0.00 | 0.00 | 0.00 | 70 | 1021.5 |
| 20260502202539 | 63 | 135 | 0.0 | 1.0 | 0.00 | 0.00 | 0.00 | 70 | 1021.6 |
| 20260502202440 | 63 | 90 | 0.0 | 1.0 | 0.00 | 0.00 | 0.00 | 71 | 1021.6 |
| 20260502202339 | 63 | 112 | 0.0 | 0.0 | 0.00 | 0.00 | 0.00 | 69 | 1021.3 |
| 20260502202139 | 63 | 112 | 0.0 | 0.0 | 0.00 | 0.00 | 0.00 | 69 | 1021.5 |
| 20260502202039 | 63 | 112 | 0.0 | 0.0 | 0.00 | 0.00 | 0.00 | 69 | 1021.5 |
| 20260502201839 | 64 | 112 | 0.0 | 1.0 | 0.00 | 0.00 | 0.00 | 69 | 1021.6 |
| 20260502201640 | 64 | 112 | 0.0 | 1.0 | 0.00 | 0.00 | 0.00 | 69 | 1021.5 |
| 20260502201539 | 64 | 90 | 0.0 | 1.0 | 0.00 | 0.00 | 0.00 | 72 | 1021.5 |
| 20260502201239 | 64 | 112 | 0.0 | 1.0 | 0.00 | 0.00 | 0.00 | 72 | 1021.4 |
| 20260502200939 | 64 | 112 | 0.0 | 1.0 | 0.00 | 0.00 | 0.00 | 71 | 1021.4 |
| 20260502200839 | 64 | 112 | 0.0 | 1.0 | 0.00 | 0.00 | 0.00 | 71 | 1021.6 |
| 20260502200739 | 64 | 112 | 0.0 | 1.0 | 0.00 | 0.00 | 0.00 | 71 | 1021.5 |
| 20260502200639 | 64 | 90 | 0.0 | 0.0 | 0.00 | 0.00 | 0.00 | 73 | 1021.4 |
| 20260502200539 | 64 | 90 | 0.0 | 0.0 | 0.00 | 0.00 | 0.00 | 73 | 1021.4 |
| 20260502200439 | 64 | 90 | 0.0 | 0.0 | 0.00 | 0.00 | 0.00 | 71 | 1021.4 |
| 20260502200340 | 64 | 90 | 0.0 | 1.0 | 0.00 | 0.00 | 0.00 | 71 | 1021.5 |
| 20260502200240 | 64 | 112 | 0.0 | 1.0 | 0.00 | 0.00 | 0.00 | 72 | 1021.5 |
| 20260502200040 | 64 | 112 | 0.0 | 1.0 | 0.00 | 0.00 | 0.00 | 72 | 1021.4 |
| 20260502195940 | 64 | 90 | 0.0 | 1.0 | 0.00 | 0.00 | 0.00 | 72 | 1021.6 |
| 20260502195740 | 64 | 112 | 0.0 | 1.0 | 0.00 | 0.00 | 0.00 | 69 | 1021.5 |
| 20260502195540 | 64 | 135 | 0.0 | 1.0 | 0.00 | 0.00 | 0.00 | 68 | 1021.3 |
| 20260502195440 | 64 | 112 | 1.0 | 1.0 | 0.00 | 0.00 | 0.00 | 68 | 1021.3 |
| 20260502195339 | 64 | 112 | 1.0 | 1.0 | 0.00 | 0.00 | 0.00 | 68 | 1021.5 |
| 20260502194740 | 64 | 112 | 1.0 | 1.0 | 0.00 | 0.00 | 0.00 | 69 | 1021.3 |
| 20260502194640 | 64 | 112 | 0.0 | 1.0 | 0.00 | 0.00 | 0.00 | 71 | 1021.4 |
| 20260502194539 | 64 | 112 | 0.0 | 1.0 | 0.00 | 0.00 | 0.00 | 69 | 1021.7 |
| 20260502194040 | 64 | 112 | 0.0 | 1.0 | 0.00 | 0.00 | 0.00 | 73 | 1021.4 |
| 20260502193740 | 65 | 202 | 0.0 | 0.0 | 0.00 | 0.00 | 0.00 | 75 | 1021.5 |
| 20260502193639 | 65 | 202 | 0.0 | 0.0 | 0.00 | 0.00 | 0.00 | 75 | 1021.4 |
| 20260502193339 | 65 | 202 | 0.0 | 1.0 | 0.00 | 0.00 | 0.00 | 77 | 1021.5 |
| 20260502193140 | 66 | 90 | 0.0 | 1.0 | 0.00 | 0.00 | 0.00 | 84 | 1021.4 |
| 20260502193040 | 66 | 68 | 1.0 | 1.0 | 0.00 | 0.00 | 0.00 | 77 | 1021.3 |
| 20260502192740 | 66 | 315 | 0.0 | 1.0 | 0.00 | 0.00 | 0.00 | 78 | 1021.2 |
| 20260502192640 | 66 | 315 | 1.0 | 1.0 | 0.00 | 0.00 | 0.00 | 78 | 1021.2 |
| 20260502192440 | 67 | 315 | 2.0 | 2.0 | 0.00 | 0.00 | 0.00 | 67 | 1021.3 |
| 20260502192139 | 67 | 338 | 2.0 | 2.0 | 0.00 | 0.00 | 0.00 | 66 | 1021.3 |
| 20260502192039 | 67 | 338 | 2.0 | 2.0 | 0.00 | 0.00 | 0.00 | 69 | 1021.3 |
| 20260502191840 | 67 | 338 | 2.0 | 2.0 | 0.00 | 0.00 | 0.00 | 70 | 1021.3 |
| 20260502191740 | 66 | 338 | 2.0 | 2.0 | 0.00 | 0.00 | 0.00 | 71 | 1021.3 |
| 20260502191540 | 66 | 338 | 2.0 | 2.0 | 0.00 | 0.00 | 0.00 | 70 | 1021.2 |
| 20260502191239 | 65 | 292 | 0.0 | 0.0 | 0.00 | 0.00 | 0.00 | 78 | 1021.2 |
| 20260502191040 | 65 | 315 | 0.0 | 0.0 | 0.00 | 0.00 | 0.00 | 77 | 1021.3 |
| 20260502190739 | 65 | 90 | 1.0 | 1.0 | 0.00 | 0.00 | 0.00 | 77 | 1021.3 |
| 20260502190439 | 64 | 158 | 0.0 | 1.0 | 0.00 | 0.00 | 0.00 | 76 | 1021.2 |
| 20260502190239 | 64 | 270 | 0.0 | 0.0 | 0.00 | 0.00 | 0.00 | 77 | 1021.1 |
| 20260502185939 | 65 | 270 | 0.0 | 0.0 | 0.00 | 0.00 | 0.00 | 75 | 1021.1 |
| 20260502185739 | 65 | 270 | 0.0 | 0.0 | 0.00 | 0.00 | 0.00 | 74 | 1021.0 |
| 20260502185338 | 65 | 315 | 0.0 | 1.0 | 0.00 | 0.00 | 0.00 | 75 | 1021.0 |
| 20260502184839 | 65 | 270 | 0.0 | 0.0 | 0.00 | 0.00 | 0.00 | 74 | 1021.0 |
| 20260502184540 | 65 | 270 | 0.0 | 0.0 | 0.00 | 0.00 | 0.00 | 74 | 1021.0 |
| 20260502184440 | 65 | 270 | 0.0 | 0.0 | 0.00 | 0.00 | 0.00 | 75 | 1021.1 |
| 20260502184039 | 66 | 270 | 0.0 | 0.0 | 0.00 | 0.00 | 0.00 | 75 | 1020.9 |
| 20260502183740 | 66 | 270 | 0.0 | 0.0 | 0.00 | 0.00 | 0.00 | 74 | 1020.9 |
| 20260502183640 | 66 | 270 | 0.0 | 0.0 | 0.00 | 0.00 | 0.00 | 74 | 1020.9 |
| 20260502183540 | 66 | 270 | 0.0 | 0.0 | 0.00 | 0.00 | 0.00 | 74 | 1021.0 |
| 20260502183440 | 66 | 270 | 0.0 | 0.0 | 0.00 | 0.00 | 0.00 | 74 | 1020.9 |
| 20260502183340 | 66 | 292 | 0.0 | 0.0 | 0.00 | 0.00 | 0.00 | 75 | 1020.8 |
| 20260502183239 | 66 | 270 | 0.0 | 0.0 | 0.00 | 0.00 | 0.00 | 74 | 1020.9 |
| 20260502182939 | 67 | 292 | 0.0 | 1.0 | 0.00 | 0.00 | 0.00 | 73 | 1020.9 |
| 20260502182739 | 67 | 292 | 0.0 | 1.0 | 0.00 | 0.00 | 0.00 | 72 | 1020.8 |
| 20260502182439 | 67 | 270 | 1.0 | 1.0 | 0.00 | 0.00 | 0.00 | 72 | 1020.7 |
| 20260502182239 | 67 | 292 | 1.0 | 1.0 | 0.00 | 0.00 | 0.00 | 71 | 1020.9 |
| 20260502181939 | 68 | 292 | 2.0 | 2.0 | 0.00 | 0.00 | 0.00 | 66 | 1021.0 |
| 20260502181839 | 68 | 315 | 1.0 | 2.0 | 0.00 | 0.00 | 0.00 | 70 | 1021.0 |
| 20260502181739 | 68 | 292 | 1.0 | 2.0 | 0.00 | 0.00 | 0.00 | 71 | 1020.8 |
| 20260502181440 | 67 | 225 | 0.0 | 1.0 | 0.00 | 0.00 | 0.00 | 68 | 1020.7 |
| 20260502181340 | 67 | 248 | 0.0 | 0.0 | 0.00 | 0.00 | 0.00 | 75 | 1020.8 |
| 20260502181240 | 67 | 270 | 0.0 | 0.0 | 0.00 | 0.00 | 0.00 | 76 | 1020.7 |
| 20260502181140 | 67 | 270 | 0.0 | 1.0 | 0.00 | 0.00 | 0.00 | 74 | 1020.9 |
| 20260502181040 | 67 | 248 | 0.0 | 0.0 | 0.00 | 0.00 | 0.00 | 73 | 1020.7 |
| 20260502180839 | 67 | 225 | 0.0 | 1.0 | 0.00 | 0.00 | 0.00 | 70 | 1020.9 |
| 20260502180639 | 67 | 248 | 0.0 | 1.0 | 0.00 | 0.00 | 0.00 | 80 | 1020.7 |
| 20260502180540 | 67 | 270 | 0.0 | 1.0 | 0.00 | 0.00 | 0.00 | 79 | 1020.6 |
| 20260502180440 | 67 | 292 | 0.0 | 1.0 | 0.00 | 0.00 | 0.00 | 78 | 1020.8 |
| 20260502180339 | 67 | 270 | 0.0 | 1.0 | 0.00 | 0.00 | 0.00 | 76 | 1020.7 |
| 20260502180140 | 67 | 292 | 1.0 | 1.0 | 0.00 | 0.00 | 0.00 | 76 | 1020.8 |
| 20260502170239 | 74 | 292 | 1.0 | 1.0 | 0.00 | 0.00 | 0.00 | 51 | 1020.8 |
| 20260502170139 | 74 | 292 | 1.0 | 2.0 | 0.00 | 0.00 | 0.00 | 51 | 1020.7 |
| 20260502164340 | 73 | 270 | 0.0 | 1.0 | 0.00 | 0.00 | 0.00 | 55 | 1021.0 |
| 20260502164039 | 73 | 315 | 1.0 | 1.0 | 0.00 | 0.00 | 0.00 | 54 | 1021.0 |
| 20260502163939 | 73 | 315 | 1.0 | 1.0 | 0.00 | 0.00 | 0.00 | 53 | 1020.9 |
| 20260502163739 | 73 | 315 | 1.0 | 2.0 | 0.00 | 0.00 | 0.00 | 54 | 1020.8 |
| 20260502163640 | 74 | 270 | 1.0 | 2.0 | 0.00 | 0.00 | 0.00 | 51 | 1021.0 |
| 20260502163339 | 73 | 292 | 1.0 | 2.0 | 0.00 | 0.00 | 0.00 | 54 | 1020.9 |
| 20260502163139 | 73 | 315 | 1.0 | 1.0 | 0.00 | 0.00 | 0.00 | 53 | 1020.8 |
| 20260502163039 | 73 | 315 | 1.0 | 1.0 | 0.00 | 0.00 | 0.00 | 54 | 1021.0 |
| 20260502162750 | 73 | 315 | 1.0 | 1.0 | 0.00 | 0.00 | 0.00 | 55 | 1021.0 |
| 20260502162539 | 74 | 292 | 2.0 | 2.0 | 0.00 | 0.00 | 0.00 | 54 | 1021.0 |
| 20260502162340 | 74 | 315 | 1.0 | 2.0 | 0.00 | 0.00 | 0.00 | 52 | 1021.0 |
| 20260502162239 | 74 | 315 | 2.0 | 2.0 | 0.00 | 0.00 | 0.00 | 52 | 1021.0 |
| 20260502162140 | 74 | 292 | 2.0 | 2.0 | 0.00 | 0.00 | 0.00 | 52 | 1020.9 |
| 20260502162040 | 75 | 270 | 1.0 | 2.0 | 0.00 | 0.00 | 0.00 | 51 | 1021.1 |
| 20260502161840 | 74 | 225 | 2.0 | 3.0 | 0.00 | 0.00 | 0.00 | 51 | 1021.2 |
| 20260502161739 | 75 | 248 | 2.0 | 3.0 | 0.00 | 0.00 | 0.00 | 51 | 1021.1 |
| 20260502161639 | 74 | 270 | 1.0 | 1.0 | 0.00 | 0.00 | 0.00 | 53 | 1021.0 |
| 20260502161340 | 75 | 225 | 1.0 | 2.0 | 0.00 | 0.00 | 0.00 | 52 | 1020.9 |
| 20260502161240 | 75 | 225 | 1.0 | 2.0 | 0.00 | 0.00 | 0.00 | 52 | 1020.9 |
| 20260502161140 | 74 | 315 | 0.0 | 1.0 | 0.00 | 0.00 | 0.00 | 52 | 1020.9 |
| 20260502160939 | 74 | 315 | 0.0 | 1.0 | 0.00 | 0.00 | 0.00 | 54 | 1021.1 |
| 20260502160839 | 74 | 292 | 0.0 | 1.0 | 0.00 | 0.00 | 0.00 | 53 | 1021.1 |
| 20260502160739 | 75 | 270 | 1.0 | 1.0 | 0.00 | 0.00 | 0.00 | 54 | 1021.0 |
| 20260502160440 | 75 | 292 | 1.0 | 2.0 | 0.00 | 0.00 | 0.00 | 53 | 1021.0 |
| 20260502160239 | 75 | 248 | 0.0 | 1.0 | 0.00 | 0.00 | 0.00 | 54 | 1021.3 |
| 20260502152339 | 74 | 270 | 0.0 | 1.0 | 0.00 | 0.00 | 0.00 | 51 | 1021.4 |
| 20260502151739 | 73 | 112 | 1.0 | 1.0 | 0.00 | 0.00 | 0.00 | 57 | 1021.6 |
| 20260502151639 | 73 | 45 | 1.0 | 2.0 | 0.00 | 0.00 | 0.00 | 54 | 1021.7 |
| 20260502151440 | 73 | 135 | 0.0 | 1.0 | 0.00 | 0.00 | 0.00 | 55 | 1021.6 |
| 20260502150939 | 73 | 338 | 0.0 | 1.0 | 0.00 | 0.00 | 0.00 | 56 | 1021.6 |
| 20260502150839 | 73 | 338 | 1.0 | 1.0 | 0.00 | 0.00 | 0.00 | 56 | 1021.6 |
| 20260502150639 | 73 | 315 | 1.0 | 2.0 | 0.00 | 0.00 | 0.00 | 54 | 1021.5 |
| 20260502150540 | 73 | 315 | 0.0 | 1.0 | 0.00 | 0.00 | 0.00 | 54 | 1021.6 |
| 20260502150440 | 73 | 338 | 1.0 | 1.0 | 0.00 | 0.00 | 0.00 | 53 | 1021.7 |
| 20260502130740 | 73 | 270 | 2.0 | 2.0 | 0.00 | 0.00 | 0.00 | 55 | 1023.2 |
| 20260502130640 | 72 | 270 | 3.0 | 4.0 | 0.00 | 0.00 | 0.00 | 55 | 1023.3 |
| 20260502130139 | 72 | 270 | 1.0 | 2.0 | 0.00 | 0.00 | 0.00 | 57 | 1023.4 |
| 20260502123540 | 70 | 338 | 1.0 | 1.0 | 0.00 | 0.00 | 0.00 | 58 | 1023.8 |
| 20260502123240 | 69 | 338 | 1.0 | 2.0 | 0.00 | 0.00 | 0.00 | 60 | 1023.8 |
| 20260502123140 | 70 | 338 | 1.0 | 1.0 | 0.00 | 0.00 | 0.00 | 58 | 1023.9 |
| 20260502123040 | 70 | 315 | 1.0 | 1.0 | 0.00 | 0.00 | 0.00 | 59 | 1023.7 |
| 20260502122940 | 70 | 338 | 1.0 | 1.0 | 0.00 | 0.00 | 0.00 | 56 | 1023.6 |
| 20260502122739 | 69 | 292 | 2.0 | 2.0 | 0.00 | 0.00 | 0.00 | 58 | 1024.0 |
| 20260502122439 | 70 | 0 | 1.0 | 1.0 | 0.00 | 0.00 | 0.00 | 59 | 1023.9 |
| 20260502121839 | 69 | 0 | 1.0 | 1.0 | 0.00 | 0.00 | 0.00 | 56 | 1024.1 |
| 20260502121739 | 69 | 338 | 1.0 | 2.0 | 0.00 | 0.00 | 0.00 | 57 | 1024.0 |
| 20260502121640 | 69 | 338 | 1.0 | 2.0 | 0.00 | 0.00 | 0.00 | 59 | 1024.0 |
| 20260502121539 | 69 | 338 | 2.0 | 2.0 | 0.00 | 0.00 | 0.00 | 62 | 1024.1 |
| 20260502121340 | 70 | 0 | 1.0 | 1.0 | 0.00 | 0.00 | 0.00 | 55 | 1023.9 |
| 20260502121040 | 70 | 248 | 1.0 | 1.0 | 0.00 | 0.00 | 0.00 | 57 | 1024.2 |
| 20260502120840 | 70 | 338 | 1.0 | 2.0 | 0.00 | 0.00 | 0.00 | 56 | 1024.3 |
| 20260502120639 | 69 | 0 | 1.0 | 2.0 | 0.00 | 0.00 | 0.00 | 56 | 1024.4 |
| 20260502115840 | 69 | 315 | 2.0 | 2.0 | 0.00 | 0.00 | 0.00 | 58 | 1024.1 |
| 20260502115740 | 70 | 338 | 2.0 | 2.0 | 0.00 | 0.00 | 0.00 | 59 | 1024.1 |
| 20260502115640 | 70 | 292 | 2.0 | 2.0 | 0.00 | 0.00 | 0.00 | 61 | 1024.2 |
| 20260502115540 | 68 | 315 | 2.0 | 3.0 | 0.00 | 0.00 | 0.00 | 63 | 1024.1 |
| 20260502115439 | 68 | 315 | 2.0 | 2.0 | 0.00 | 0.00 | 0.00 | 61 | 1024.2 |
| 20260502115339 | 68 | 338 | 2.0 | 2.0 | 0.00 | 0.00 | 0.00 | 64 | 1024.3 |
| 20260502115039 | 69 | 338 | 2.0 | 2.0 | 0.00 | 0.00 | 0.00 | 59 | 1024.4 |
| 20260502114839 | 69 | 315 | 2.0 | 2.0 | 0.00 | 0.00 | 0.00 | 58 | 1024.4 |
| 20260502114740 | 69 | 338 | 1.0 | 1.0 | 0.00 | 0.00 | 0.00 | 58 | 1024.4 |
| 20260502114440 | 69 | 292 | 1.0 | 2.0 | 0.00 | 0.00 | 0.00 | 59 | 1024.5 |
| 20260502114340 | 69 | 315 | 2.0 | 2.0 | 0.00 | 0.00 | 0.00 | 58 | 1024.6 |
| 20260502114240 | 69 | 315 | 2.0 | 2.0 | 0.00 | 0.00 | 0.00 | 59 | 1024.4 |
| 20260502114040 | 69 | 315 | 1.0 | 2.0 | 0.00 | 0.00 | 0.00 | 58 | 1024.4 |
| 20260502113940 | 69 | 292 | 2.0 | 2.0 | 0.00 | 0.00 | 0.00 | 63 | 1024.5 |
| 20260502113839 | 69 | 292 | 2.0 | 2.0 | 0.00 | 0.00 | 0.00 | 60 | 1024.4 |
| 20260502113639 | 68 | 315 | 2.0 | 2.0 | 0.00 | 0.00 | 0.00 | 60 | 1024.5 |
| 20260502113339 | 69 | 315 | 2.0 | 2.0 | 0.00 | 0.00 | 0.00 | 63 | 1024.4 |
| 20260502113139 | 69 | 315 | 2.0 | 2.0 | 0.00 | 0.00 | 0.00 | 60 | 1024.6 |
| 20260502112939 | 69 | 292 | 2.0 | 4.0 | 0.00 | 0.00 | 0.00 | 59 | 1024.6 |
| 20260502112640 | 69 | 270 | 2.0 | 2.0 | 0.00 | 0.00 | 0.00 | 62 | 1024.6 |
| 20260502112440 | 69 | 315 | 2.0 | 2.0 | 0.00 | 0.00 | 0.00 | 60 | 1024.7 |
| 20260502112240 | 70 | 338 | 0.0 | 1.0 | 0.00 | 0.00 | 0.00 | 58 | 1024.7 |
| 20260502111939 | 70 | 158 | 0.0 | 1.0 | 0.00 | 0.00 | 0.00 | 60 | 1024.7 |
| 20260502111839 | 70 | 338 | 2.0 | 2.0 | 0.00 | 0.00 | 0.00 | 60 | 1024.9 |
| 20260502111640 | 70 | 270 | 3.0 | 5.0 | 0.00 | 0.00 | 0.00 | 58 | 1024.8 |
| 20260502111540 | 70 | 248 | 1.0 | 2.0 | 0.00 | 0.00 | 0.00 | 57 | 1025.0 |
| 20260502111339 | 69 | 248 | 1.0 | 2.0 | 0.00 | 0.00 | 0.00 | 60 | 1024.9 |
| 20260502111239 | 69 | 135 | 0.0 | 1.0 | 0.00 | 0.00 | 0.00 | 58 | 1024.9 |
| 20260502111139 | 69 | 315 | 2.0 | 4.0 | 0.00 | 0.00 | 0.00 | 61 | 1025.0 |
| 20260502111039 | 69 | 292 | 2.0 | 4.0 | 0.00 | 0.00 | 0.00 | 60 | 1025.2 |
| 20260502110839 | 69 | 315 | 1.0 | 1.0 | 0.00 | 0.00 | 0.00 | 57 | 1025.0 |
| 20260502110739 | 69 | 315 | 1.0 | 1.0 | 0.00 | 0.00 | 0.00 | 58 | 1025.1 |
| 20260502110639 | 69 | 270 | 1.0 | 2.0 | 0.00 | 0.00 | 0.00 | 57 | 1025.2 |
| 20260502110539 | 70 | 270 | 2.0 | 2.0 | 0.00 | 0.00 | 0.00 | 58 | 1025.0 |
| 20260502110439 | 70 | 270 | 1.0 | 1.0 | 0.00 | 0.00 | 0.00 | 60 | 1025.2 |
| 20260502110239 | 69 | 248 | 2.0 | 3.0 | 0.00 | 0.00 | 0.00 | 59 | 1025.4 |
| 20260502110040 | 68 | 0 | 0.0 | 1.0 | 0.00 | 0.00 | 0.00 | 64 | 1025.2 |
| 20260502105940 | 68 | 68 | 0.0 | 1.0 | 0.00 | 0.00 | 0.00 | 65 | 1025.3 |
| 20260502105840 | 68 | 45 | 0.0 | 1.0 | 0.00 | 0.00 | 0.00 | 66 | 1025.3 |
| 20260502105539 | 68 | 0 | 0.0 | 1.0 | 0.00 | 0.00 | 0.00 | 61 | 1025.3 |
| 20260502105339 | 67 | 338 | 1.0 | 1.0 | 0.00 | 0.00 | 0.00 | 60 | 1025.3 |
| 20260502105239 | 67 | 338 | 1.0 | 1.0 | 0.00 | 0.00 | 0.00 | 62 | 1025.3 |
| 20260502105139 | 67 | 338 | 2.0 | 2.0 | 0.00 | 0.00 | 0.00 | 64 | 1025.1 |
| 20260502104839 | 67 | 338 | 1.0 | 1.0 | 0.00 | 0.00 | 0.00 | 64 | 1025.4 |
| 20260502104740 | 67 | 338 | 1.0 | 1.0 | 0.00 | 0.00 | 0.00 | 62 | 1025.7 |
| 20260502104539 | 67 | 0 | 1.0 | 1.0 | 0.00 | 0.00 | 0.00 | 66 | 1025.5 |
| 20260502104440 | 67 | 45 | 1.0 | 1.0 | 0.00 | 0.00 | 0.00 | 64 | 1025.4 |
| 20260502104239 | 67 | 0 | 1.0 | 1.0 | 0.00 | 0.00 | 0.00 | 64 | 1025.4 |
| 20260502103939 | 66 | 338 | 1.0 | 1.0 | 0.00 | 0.00 | 0.00 | 67 | 1025.6 |
| 20260502103740 | 66 | 22 | 1.0 | 1.0 | 0.00 | 0.00 | 0.00 | 73 | 1025.7 |
| 20260502103640 | 66 | 22 | 1.0 | 1.0 | 0.00 | 0.00 | 0.00 | 72 | 1025.6 |
| 20260502103540 | 66 | 22 | 0.0 | 1.0 | 0.00 | 0.00 | 0.00 | 68 | 1025.8 |
| 20260502103439 | 66 | 22 | 1.0 | 1.0 | 0.00 | 0.00 | 0.00 | 69 | 1025.7 |
| 20260502103039 | 66 | 0 | 0.0 | 1.0 | 0.00 | 0.00 | 0.00 | 65 | 1025.8 |
| 20260502102939 | 65 | 0 | 1.0 | 1.0 | 0.00 | 0.00 | 0.00 | 67 | 1025.6 |
| 20260502102840 | 66 | 0 | 0.0 | 1.0 | 0.00 | 0.00 | 0.00 | 75 | 1025.6 |
| 20260502102740 | 66 | 0 | 1.0 | 1.0 | 0.00 | 0.00 | 0.00 | 66 | 1025.7 |
| 20260502102640 | 66 | 0 | 1.0 | 1.0 | 0.00 | 0.00 | 0.00 | 66 | 1025.8 |
| 20260502102239 | 65 | 338 | 1.0 | 1.0 | 0.00 | 0.00 | 0.00 | 69 | 1025.8 |
| 20260502102040 | 65 | 338 | 1.0 | 1.0 | 0.00 | 0.00 | 0.00 | 72 | 1025.9 |
| 20260502101440 | 65 | 315 | 1.0 | 2.0 | 0.00 | 0.00 | 0.00 | 70 | 1026.0 |
| 20260502101339 | 64 | 338 | 2.0 | 2.0 | 0.00 | 0.00 | 0.00 | 74 | 1025.9 |
| 20260502101239 | 65 | 338 | 1.0 | 2.0 | 0.00 | 0.00 | 0.00 | 82 | 1025.9 |
| 20260502101039 | 66 | 315 | 1.0 | 2.0 | 0.00 | 0.00 | 0.00 | 68 | 1025.9 |
| 20260502100939 | 66 | 315 | 1.0 | 1.0 | 0.00 | 0.00 | 0.00 | 67 | 1025.9 |
| 20260502100340 | 64 | 338 | 1.0 | 2.0 | 0.00 | 0.00 | 0.00 | 77 | 1026.1 |
| 20260502091139 | 60 | 45 | 0.0 | 1.0 | 0.00 | 0.00 | 0.00 | 86 | 1026.7 |
| 20260502091039 | 60 | 45 | 1.0 | 1.0 | 0.00 | 0.00 | 0.00 | 85 | 1026.7 |
| 20260502090339 | 60 | 45 | 1.0 | 1.0 | 0.00 | 0.00 | 0.00 | 85 | 1027.0 |
| 20260502090139 | 60 | 68 | 1.0 | 1.0 | 0.00 | 0.00 | 0.00 | 85 | 1026.8 |
| 20260502071340 | 57 | 68 | 7.0 | 8.0 | 0.00 | 0.00 | 0.00 | 93 | 1028.0 |
| 20260502071240 | 57 | 90 | 7.0 | 8.0 | 0.00 | 0.00 | 0.00 | 92 | 1027.8 |
| 20260502071140 | 57 | 68 | 7.0 | 8.0 | 0.00 | 0.00 | 0.00 | 91 | 1027.8 |
| 20260502070840 | 57 | 68 | 7.0 | 8.0 | 0.00 | 0.00 | 0.00 | 94 | 1027.8 |
| 20260502070540 | 56 | 68 | 7.0 | 8.0 | 0.00 | 0.00 | 0.00 | 92 | 1027.7 |
| 20260502070239 | 56 | 68 | 8.0 | 9.0 | 0.00 | 0.00 | 0.00 | 94 | 1028.0 |
| 20260502070139 | 56 | 90 | 8.0 | 9.0 | 0.00 | 0.00 | 0.00 | 94 | 1027.9 |
| 20260502065839 | 56 | 68 | 8.0 | 9.0 | 0.00 | 0.00 | 0.00 | 95 | 1027.9 |
| 20260502065639 | 56 | 90 | 8.0 | 9.0 | 0.00 | 0.00 | 0.00 | 93 | 1027.8 |
| 20260502065040 | 56 | 90 | 7.0 | 9.0 | 0.00 | 0.00 | 0.00 | 94 | 1027.9 |
| 20260502064839 | 56 | 90 | 7.0 | 8.0 | 0.00 | 0.00 | 0.00 | 93 | 1027.9 |
| 20260502064539 | 56 | 90 | 7.0 | 8.0 | 0.00 | 0.00 | 0.00 | 94 | 1027.8 |
| 20260502064339 | 56 | 90 | 7.0 | 9.0 | 0.00 | 0.00 | 0.00 | 92 | 1027.8 |
| 20260502064039 | 56 | 90 | 7.0 | 7.0 | 0.00 | 0.00 | 0.00 | 89 | 1028.1 |
| 20260502063939 | 56 | 68 | 7.0 | 8.0 | 0.00 | 0.00 | 0.00 | 92 | 1028.1 |
| 20260502063740 | 56 | 90 | 7.0 | 8.0 | 0.00 | 0.00 | 0.00 | 94 | 1027.9 |
| 20260502063640 | 56 | 68 | 7.0 | 8.0 | 0.00 | 0.00 | 0.00 | 94 | 1027.8 |
| 20260502063539 | 56 | 90 | 6.0 | 7.0 | 0.00 | 0.00 | 0.00 | 94 | 1027.9 |
| 20260502063439 | 56 | 68 | 7.0 | 7.0 | 0.00 | 0.00 | 0.00 | 93 | 1027.9 |
| 20260502063140 | 56 | 68 | 8.0 | 9.0 | 0.00 | 0.00 | 0.00 | 93 | 1027.9 |
| 20260502062939 | 56 | 68 | 8.0 | 10.0 | 0.00 | 0.00 | 0.00 | 92 | 1027.9 |
| 20260502062540 | 56 | 68 | 8.0 | 9.0 | 0.00 | 0.00 | 0.00 | 94 | 1027.9 |
| 20260502062039 | 56 | 90 | 8.0 | 9.0 | 0.00 | 0.00 | 0.00 | 93 | 1027.8 |
| 20260502061939 | 56 | 90 | 8.0 | 10.0 | 0.00 | 0.00 | 0.00 | 91 | 1027.8 |
| 20260502061740 | 56 | 90 | 9.0 | 10.0 | 0.00 | 0.00 | 0.00 | 91 | 1028.0 |
| 20260502061539 | 56 | 68 | 9.0 | 11.0 | 0.00 | 0.00 | 0.00 | 92 | 1027.7 |
| 20260502061240 | 56 | 68 | 7.0 | 9.0 | 0.00 | 0.00 | 0.00 | 94 | 1027.8 |
| 20260502061040 | 56 | 68 | 8.0 | 9.0 | 0.00 | 0.00 | 0.00 | 92 | 1028.0 |
| 20260502060739 | 56 | 90 | 8.0 | 9.0 | 0.00 | 0.00 | 0.00 | 93 | 1027.9 |
| 20260502060540 | 56 | 90 | 9.0 | 11.0 | 0.00 | 0.00 | 0.00 | 91 | 1027.7 |
| 20260502060440 | 56 | 90 | 8.0 | 10.0 | 0.00 | 0.00 | 0.00 | 92 | 1027.7 |
| 20260502055939 | 56 | 90 | 9.0 | 10.0 | 0.00 | 0.00 | 0.00 | 91 | 1027.7 |
| 20260502055450 | 56 | 90 | 8.0 | 9.0 | 0.00 | 0.00 | 0.00 | 91 | 1027.7 |
| 20260502055339 | 56 | 68 | 8.0 | 9.0 | 0.00 | 0.00 | 0.00 | 94 | 1027.8 |
| 20260502055140 | 56 | 68 | 9.0 | 11.0 | 0.00 | 0.00 | 0.00 | 93 | 1027.6 |
| 20260502054840 | 56 | 90 | 7.0 | 9.0 | 0.00 | 0.00 | 0.00 | 91 | 1027.7 |
| 20260502054740 | 56 | 90 | 8.0 | 10.0 | 0.00 | 0.00 | 0.00 | 90 | 1027.8 |
| 20260502054640 | 56 | 68 | 8.0 | 9.0 | 0.00 | 0.00 | 0.00 | 91 | 1027.9 |
| 20260502054339 | 56 | 90 | 7.0 | 9.0 | 0.00 | 0.00 | 0.00 | 93 | 1027.7 |
| 20260502054140 | 56 | 90 | 9.0 | 9.0 | 0.00 | 0.00 | 0.00 | 92 | 1027.8 |
| 20260502053940 | 56 | 68 | 8.0 | 10.0 | 0.00 | 0.00 | 0.00 | 92 | 1027.8 |
| 20260502053840 | 56 | 90 | 9.0 | 11.0 | 0.00 | 0.00 | 0.00 | 91 | 1027.7 |
| 20260502053740 | 56 | 90 | 8.0 | 9.0 | 0.00 | 0.00 | 0.00 | 92 | 1027.8 |
| 20260502053440 | 56 | 90 | 8.0 | 9.0 | 0.00 | 0.00 | 0.00 | 91 | 1027.7 |